FW4526 Weather Reports


time (UTC)temp
C
wind
direction
speed
KPH
gust
KPH
rain 1hr
cm
rain 24hr
cm
rain mn
cm
humidity
%
barometer
mb
20260504081502 6 180 0.0 6.4 0.00 0.00 0.00 85 1013.4
20260504044551 4 265 0.0 3.2 0.00 0.00 0.00 85 1014.1
20260504043042 3 265 1.6 3.2 0.00 0.00 0.00 88 1014.1
20260504041541 3 265 0.0 4.8 0.00 0.00 0.00 85 1014.1
20260504040048 2 265 0.0 1.6 0.00 0.00 0.00 86 1014.0
20260504034553 3 265 0.0 0.0 0.00 0.00 0.00 84 1014.0
20260504033032 3 265 0.0 0.0 0.00 0.00 0.00 82 1013.9
20260504031531 4 265 0.0 3.2 0.00 0.00 0.00 82 1014.0
20260504030040 3 265 1.6 3.2 0.00 0.00 0.00 83 1014.0
20260504024524 4 265 0.0 1.6 0.00 0.00 0.00 81 1013.9
20260504023022 5 265 0.0 0.0 0.00 0.00 0.00 78 1013.6
20260504021519 5 265 1.6 4.8 0.00 0.00 0.00 79 1013.5
20260504020017 5 264 0.0 0.0 0.00 0.00 0.00 73 1013.4
20260504014530 6 264 0.0 0.0 0.00 0.00 0.00 71 1013.2
20260504013007 6 264 0.0 0.0 0.00 0.00 0.00 69 1013.0
20260504011505 7 264 0.0 1.6 0.00 0.00 0.00 65 1012.9
20260504010002 8 264 0.0 1.6 0.00 0.00 0.00 62 1012.9
20260504004621 8 264 0.0 1.6 0.00 0.00 0.00 59 1012.8
20260504003053 9 264 0.0 1.6 0.00 0.00 0.00 59 1012.7
20260504001553 10 264 0.0 3.2 0.00 0.00 0.00 58 1012.7
20260504000049 10 264 0.0 3.2 0.00 0.00 0.00 55 1012.7
20260503234547 12 264 1.6 4.8 0.00 0.00 0.00 54 1012.5
20260503233047 13 264 1.6 6.4 0.00 0.00 0.00 46 1012.5
20260503231545 15 317 1.6 9.7 0.00 0.00 0.00 39 1012.4
20260503230048 15 296 1.6 16.1 0.00 0.00 0.00 36 1012.4
20260503224514 15 286 3.2 12.9 0.00 0.00 0.00 35 1012.4
20260503223014 16 303 3.2 8.0 0.00 0.00 0.00 33 1012.4
20260503221509 16 294 3.2 9.7 0.00 0.00 0.00 36 1012.4
20260503220008 16 261 3.2 9.7 0.00 0.00 0.00 35 1012.4
20260503214507 16 324 8.0 16.1 0.00 0.00 0.00 35 1012.4
20260503213006 16 317 8.0 14.5 0.00 0.00 0.00 33 1012.5
20260503211502 16 319 4.8 11.3 0.00 0.00 0.00 35 1012.6
20260503210001 16 281 4.8 19.3 0.00 0.00 0.00 36 1012.7
20260503204609 16 315 4.8 16.1 0.00 0.00 0.00 37 1012.8
20260503203105 16 321 4.8 12.9 0.00 0.00 0.00 35 1012.9
20260503201558 16 277 8.0 17.7 0.00 0.00 0.00 37 1012.9
20260503200057 15 317 6.4 22.5 0.00 0.00 0.00 39 1013.2
20260503194551 15 323 8.0 19.3 0.00 0.00 0.00 39 1013.5
20260503193054 15 225 6.4 12.9 0.00 0.00 0.00 37 1013.9
20260503191546 15 304 4.8 17.7 0.00 0.00 0.00 43 1014.1
20260503190045 15 328 9.7 20.9 0.00 0.00 0.00 42 1014.1
20260503184554 15 328 6.4 22.5 0.00 0.00 0.00 48 1014.1
20260503183059 14 5 6.4 17.7 0.00 0.00 0.00 41 1014.5
20260503181510 13 244 1.6 19.3 0.00 0.00 0.00 44 1014.4
20260503180019 13 288 4.8 16.1 0.00 0.00 0.00 47 1014.6
20260503174507 13 334 12.9 25.7 0.00 0.00 0.00 45 1014.6
20260503173005 13 54 6.4 16.1 0.00 0.00 0.00 44 1014.7
20260503171501 13 191 6.4 19.3 0.00 0.00 0.00 45 1014.8